• In Netherlands
  • List of Countries
  • For 7 days
  • Water Temperature
  • Satellite Maps
  • Weather Map
  • Weather Widgets
  • user-avatar
    Login

    Hourly Weather La Massana

    Today, 24 September, Sunday

    Time Temperature Precipitation Wind Pressure Humidity
    00:00 +8°C° 0 mm 1 mps 614 mmHg 64%
    01:00 +7°C° 0 mm 1 mps 613 mmHg 61%
    02:00 +6°C° 0 mm 2 mps 613 mmHg 59%
    03:00 +6°C° 0 mm 2 mps 613 mmHg 56%
    04:00 +6°C° 0 mm 2 mps 613 mmHg 54%
    05:00 +6°C° 0 mm 2 mps 613 mmHg 52%
    06:00 +6°C° 0 mm 2 mps 613 mmHg 55%
    07:00 +10°C° 0 mm 1 mps 614 mmHg 48%
    08:00 +13°C° 0 mm 1 mps 616 mmHg 42%
    09:00 +16°C° 0 mm 1 mps 617 mmHg 36%
    10:00 +18°C° 0 mm 1 mps 617 mmHg 34%
    11:00 +19°C° 0 mm 1 mps 618 mmHg 32%
    12:00 +20°C° 0 mm 1 mps 618 mmHg 30%
    13:00 +20°C° 0 mm 1 mps 618 mmHg 31%
    14:00 +20°C° 0 mm 1 mps 617 mmHg 32%
    15:00 +20°C° 0 mm 1 mps 617 mmHg 33%
    16:00 +16°C° 0 mm 1 mps 616 mmHg 42%
    17:00 +14°C° 0 mm 1 mps 615 mmHg 51%
    18:00 +11°C° 0 mm 1 mps 614 mmHg 59%
    19:00 +11°C° 0 mm 1 mps 614 mmHg 61%
    20:00 +10°C° 0 mm 1 mps 614 mmHg 62%
    21:00 +10°C° 0 mm 1 mps 614 mmHg 63%
    22:00 +10°C° 0 mm 1 mps 614 mmHg 63%
    23:00 +9°C° 0 mm 1 mps 614 mmHg 62%

    Tomorrow, 25 September, Monday

    Time Temperature Precipitation Wind Pressure Humidity
    00:00 +9°C° 0 mm 1 mps 613 mmHg 62%
    01:00 +9°C° 0 mm 1 mps 613 mmHg 62%
    02:00 +9°C° 0 mm 1 mps 613 mmHg 63%
    03:00 +8°C° 0 mm 1 mps 613 mmHg 63%
    04:00 +8°C° 0 mm 1 mps 613 mmHg 64%
    05:00 +8°C° 0 mm 1 mps 613 mmHg 65%
    06:00 +8°C° 0 mm 1 mps 613 mmHg 66%
    07:00 +10°C° 0.1 mm 1 mps 614 mmHg 65%
    08:00 +11°C° 0.1 mm 1 mps 615 mmHg 63%
    09:00 +13°C° 0.1 mm 1 mps 616 mmHg 62%
    10:00 +14°C° 0 mm 1 mps 616 mmHg 58%
    11:00 +15°C° 0 mm 2 mps 616 mmHg 54%
    12:00 +16°C° 0 mm 2 mps 617 mmHg 49%
    13:00 +16°C° 0.2 mm 2 mps 616 mmHg 54%
    14:00 +15°C° 0.2 mm 2 mps 616 mmHg 59%
    15:00 +14°C° 0.2 mm 2 mps 615 mmHg 64%
    16:00 +13°C° 0.6 mm 2 mps 615 mmHg 71%
    17:00 +12°C° 0.6 mm 2 mps 615 mmHg 78%
    18:00 +9°C° 0.6 mm 2 mps 614 mmHg 85%
    19:00 +9°C° 0.5 mm 2 mps 614 mmHg 87%
    20:00 +8°C° 0.5 mm 2 mps 614 mmHg 89%
    21:00 +8°C° 0.5 mm 2 mps 615 mmHg 91%
    22:00 +9°C° 0.2 mm 1 mps 614 mmHg 91%
    23:00 +8°C° 0.2 mm 1 mps 614 mmHg 92%

    Day after tomorrow, 26 September, Tuesday

    Time Temperature Precipitation Wind Pressure Humidity
    00:00 +8°C° 0.2 mm 1 mps 614 mmHg 92%
    01:00 +8°C° 0.1 mm 1 mps 614 mmHg 92%
    02:00 +7°C° 0.1 mm 1 mps 614 mmHg 92%
    03:00 +7°C° 0.1 mm 1 mps 613 mmHg 93%
    04:00 +7°C° 0 mm 1 mps 613 mmHg 93%
    05:00 +7°C° 0 mm 1 mps 613 mmHg 92%
    06:00 +6°C° 0 mm 1 mps 613 mmHg 92%
    07:00 +8°C° 0 mm 1 mps 614 mmHg 87%
    08:00 +9°C° 0 mm 1 mps 615 mmHg 81%
    09:00 +11°C° 0 mm 1 mps 616 mmHg 75%
    10:00 +12°C° 0 mm 1 mps 616 mmHg 69%
    11:00 +13°C° 0 mm 1 mps 616 mmHg 62%
    12:00 +14°C° 0 mm 1 mps 617 mmHg 56%
    13:00 +13°C° 0.1 mm 1 mps 616 mmHg 58%
    14:00 +13°C° 0.1 mm 1 mps 616 mmHg 59%
    15:00 +13°C° 0.1 mm 1 mps 616 mmHg 60%
    16:00 +11°C° 0.1 mm 1 mps 615 mmHg 67%
    17:00 +10°C° 0.1 mm 1 mps 615 mmHg 73%
    18:00 +8°C° 0.1 mm 0 mps 614 mmHg 79%
    19:00 +8°C° 0 mm 1 mps 614 mmHg 82%
    20:00 +7°C° 0 mm 1 mps 614 mmHg 84%
    21:00 +7°C° 0 mm 1 mps 614 mmHg 87%
    22:00 +7°C° 0 mm 1 mps 614 mmHg 87%
    23:00 +7°C° 0 mm 1 mps 614 mmHg 88%

    27 September, Wednesday

    Time Temperature Precipitation Wind Pressure Humidity
    00:00 +6°C° 0 mm 1 mps 614 mmHg 89%
    01:00 +6°C° 0 mm 1 mps 614 mmHg 89%
    02:00 +6°C° 0 mm 1 mps 614 mmHg 90%
    03:00 +6°C° 0 mm 1 mps 614 mmHg 90%
    04:00 +6°C° 0 mm 1 mps 614 mmHg 90%
    05:00 +6°C° 0 mm 1 mps 614 mmHg 90%
    06:00 +6°C° 0 mm 1 mps 614 mmHg 90%
    07:00 +8°C° 0 mm 1 mps 615 mmHg 80%
    08:00 +11°C° 0 mm 1 mps 616 mmHg 70%
    09:00 +13°C° 0 mm 1 mps 617 mmHg 60%
    10:00 +14°C° 0 mm 1 mps 618 mmHg 54%
    11:00 +16°C° 0 mm 2 mps 618 mmHg 49%
    12:00 +17°C° 0 mm 2 mps 619 mmHg 44%
    13:00 +17°C° 0 mm 2 mps 618 mmHg 45%
    14:00 +16°C° 0 mm 2 mps 618 mmHg 47%
    15:00 +16°C° 0 mm 2 mps 618 mmHg 48%
    16:00 +14°C° 0 mm 2 mps 617 mmHg 57%
    17:00 +12°C° 0 mm 2 mps 617 mmHg 66%
    18:00 +10°C° 0 mm 1 mps 616 mmHg 75%
    19:00 +10°C° 0 mm 1 mps 616 mmHg 77%
    20:00 +9°C° 0 mm 1 mps 616 mmHg 80%
    21:00 +8°C° 0 mm 1 mps 616 mmHg 83%
    22:00 +8°C° 0 mm 1 mps 616 mmHg 82%
    23:00 +8°C° 0 mm 1 mps 616 mmHg 82%

    28 September, Thursday

    Time Temperature Precipitation Wind Pressure Humidity
    00:00 +8°C° 0 mm 1 mps 616 mmHg 81%
    01:00 +8°C° 0 mm 1 mps 616 mmHg 79%
    02:00 +8°C° 0 mm 1 mps 616 mmHg 76%
    03:00 +8°C° 0 mm 1 mps 616 mmHg 74%
    04:00 +7°C° 0 mm 1 mps 616 mmHg 70%
    05:00 +7°C° 0 mm 1 mps 616 mmHg 67%
    06:00 +7°C° 0 mm 1 mps 616 mmHg 63%
    07:00 +10°C° 0 mm 1 mps 617 mmHg 57%
    08:00 +13°C° 0 mm 1 mps 619 mmHg 51%
    09:00 +14°C° 0 mm 0 mps 620 mmHg 44%
    10:00 +16°C° 0 mm 1 mps 620 mmHg 42%
    11:00 +19°C° 0 mm 1 mps 620 mmHg 40%
    12:00 +19°C° 0 mm 2 mps 621 mmHg 38%
    13:00 +18°C° 0 mm 2 mps 620 mmHg 40%
    14:00 +18°C° 0 mm 2 mps 620 mmHg 42%
    15:00 +18°C° 0 mm 2 mps 620 mmHg 43%
    16:00 +16°C° 0 mm 1 mps 619 mmHg 53%
    17:00 +13°C° 0 mm 1 mps 618 mmHg 63%
    18:00 +11°C° 0 mm 1 mps 617 mmHg 74%
    19:00 +10°C° 0 mm 1 mps 617 mmHg 76%
    20:00 +10°C° 0 mm 1 mps 617 mmHg 79%
    21:00 +9°C° 0 mm 1 mps 616 mmHg 81%
    22:00 +9°C° 0 mm 1 mps 616 mmHg 81%
    23:00 +9°C° 0 mm 1 mps 616 mmHg 80%

    29 September, Friday

    Time Temperature Precipitation Wind Pressure Humidity
    00:00 +9°C° 0 mm 1 mps 616 mmHg 80%
    01:00 +9°C° 0 mm 1 mps 616 mmHg 80%
    02:00 +9°C° 0 mm 1 mps 615 mmHg 79%
    03:00 +8°C° 0 mm 1 mps 615 mmHg 78%
    04:00 +8°C° 0 mm 1 mps 615 mmHg 77%
    05:00 +8°C° 0 mm 1 mps 615 mmHg 76%
    06:00 +8°C° 0 mm 1 mps 615 mmHg 75%
    07:00 +11°C° 0 mm 1 mps 616 mmHg 67%
    08:00 +13°C° 0 mm 1 mps 617 mmHg 58%
    09:00 +16°C° 0 mm 1 mps 618 mmHg 49%
    10:00 +18°C° 0 mm 1 mps 618 mmHg 47%
    11:00 +19°C° 0 mm 1 mps 618 mmHg 45%
    12:00 +19°C° 0 mm 2 mps 619 mmHg 43%
    13:00 +18°C° 0.1 mm 2 mps 618 mmHg 46%
    14:00 +18°C° 0.1 mm 2 mps 617 mmHg 50%
    15:00 +17°C° 0.1 mm 2 mps 617 mmHg 54%
    16:00 +15°C° 0.3 mm 2 mps 616 mmHg 62%
    17:00 +14°C° 0.3 mm 1 mps 615 mmHg 71%
    18:00 +12°C° 0.3 mm 1 mps 615 mmHg 79%
    19:00 +11°C° 0.3 mm 1 mps 615 mmHg 81%
    20:00 +11°C° 0.3 mm 1 mps 615 mmHg 83%
    21:00 +10°C° 0.3 mm 1 mps 615 mmHg 86%
    22:00 +10°C° 0.4 mm 1 mps 614 mmHg 87%
    23:00 +10°C° 0.4 mm 1 mps 614 mmHg 88%
    Show more